Location: Earls Croome
(52.0667°N, 2.2000°W)
Time: 01:48:50
(UTC+00:00)

Cosmos 1898 Rocket - Pass Details

Date: 17 November 2019
Orbit: 753 x 785 km, 74.0° (Epoch: 12 December)

Event Time Altitude Azimuth Distance (km) Brightness Sun altitude
Exits shadow 05:21:37 16° 217° (SW) 1,925 5.3 -19.7°
Maximum altitude 05:25:49 68° 298° (WNW) 834 3.4 -19.0°
Drops below altitude 10° 05:31:07 10° 22° (NNE) 2,338 6.2 -18.2°
Sets 05:33:33 0° 25° (NNE) 3,274 7.0 -17.9°
